| time (UTC) | temp F | wind direction | speed MPH | gust MPH | rain 1hr in | rain 24hr in | rain mn in | humidity % | barometer mb |
| 20260509061412 | 56 | 46 | 0.0 | 0.0 | 0.00 | 0.00 | 0.00 | 92 | 1013.7 |
| 20260509060908 | 56 | 46 | 0.0 | 0.0 | 0.00 | 0.00 | 0.00 | 92 | 1013.6 |
| 20260509060400 | 56 | 46 | 0.0 | 0.0 | 0.00 | 0.00 | 0.00 | 93 | 1013.6 |
| 20260509055855 | 56 | 46 | 0.0 | 0.0 | 0.00 | 0.00 | 0.00 | 93 | 1013.6 |
| 20260509055616 | 56 | 46 | 0.0 | 0.0 | 0.00 | 0.00 | 0.00 | 93 | 1013.7 |
| 20260509054842 | 56 | 46 | 0.0 | 0.0 | 0.00 | 0.00 | 0.00 | 93 | 1013.7 |
| 20260509054336 | 56 | 46 | 0.0 | 0.0 | 0.00 | 0.00 | 0.00 | 92 | 1013.7 |
| 20260509053829 | 56 | 46 | 0.0 | 0.0 | 0.00 | 0.00 | 0.00 | 92 | 1013.8 |
| 20260509053324 | 56 | 46 | 0.0 | 0.0 | 0.00 | 0.00 | 0.00 | 92 | 1013.8 |
| 20260509052818 | 56 | 46 | 0.0 | 0.0 | 0.00 | 0.00 | 0.00 | 91 | 1013.8 |
| 20260509052312 | 56 | 46 | 0.0 | 0.0 | 0.00 | 0.00 | 0.00 | 91 | 1013.9 |
| 20260509051806 | 56 | 46 | 0.0 | 0.0 | 0.00 | 0.00 | 0.00 | 91 | 1013.9 |
| 20260509051301 | 56 | 46 | 0.0 | 0.0 | 0.00 | 0.00 | 0.00 | 91 | 1014.0 |
| 20260509050754 | 57 | 46 | 0.0 | 0.0 | 0.00 | 0.00 | 0.00 | 91 | 1013.9 |
| 20260509050248 | 57 | 46 | 0.0 | 0.0 | 0.00 | 0.00 | 0.00 | 91 | 1013.8 |
| 20260509045743 | 57 | 46 | 0.0 | 0.0 | 0.00 | 0.00 | 0.00 | 91 | 1013.8 |
| 20260509045457 | 57 | 46 | 0.0 | 0.0 | 0.00 | 0.00 | 0.00 | 91 | 1013.9 |
| 20260509044731 | 57 | 46 | 0.0 | 0.0 | 0.00 | 0.00 | 0.00 | 91 | 1013.8 |
| 20260509044224 | 57 | 46 | 0.0 | 0.0 | 0.00 | 0.00 | 0.00 | 91 | 1013.8 |
| 20260509043718 | 57 | 46 | 0.0 | 0.0 | 0.00 | 0.00 | 0.00 | 90 | 1013.7 |
| 20260509043212 | 57 | 46 | 0.0 | 0.0 | 0.00 | 0.00 | 0.00 | 90 | 1013.7 |
| 20260509042706 | 57 | 46 | 0.0 | 0.0 | 0.00 | 0.00 | 0.00 | 90 | 1013.4 |
| 20260509042200 | 58 | 46 | 0.0 | 0.0 | 0.00 | 0.00 | 0.00 | 90 | 1013.4 |
| 20260509041654 | 58 | 46 | 0.0 | 0.0 | 0.00 | 0.00 | 0.00 | 90 | 1013.4 |
| 20260509041149 | 58 | 46 | 0.0 | 0.0 | 0.00 | 0.00 | 0.00 | 89 | 1013.6 |
| 20260509040642 | 58 | 46 | 0.0 | 0.0 | 0.00 | 0.00 | 0.00 | 89 | 1013.6 |
| 20260509040135 | 58 | 46 | 0.0 | 0.0 | 0.00 | 0.00 | 0.00 | 89 | 1013.4 |
| 20260509040108 | 58 | 46 | 0.0 | 0.0 | 0.00 | 0.00 | 0.00 | 89 | 1013.6 |
| 20260509035124 | 58 | 46 | 0.0 | 0.0 | 0.00 | 0.00 | 0.00 | 87 | 1013.4 |
| 20260509034845 | 59 | 46 | 0.0 | 0.0 | 0.00 | 0.00 | 0.00 | 87 | 1013.3 |
| 20260509034333 | 59 | 46 | 0.0 | 0.0 | 0.00 | 0.00 | 0.00 | 87 | 1013.2 |
| 20260509033606 | 59 | 46 | 0.0 | 0.0 | 0.00 | 0.00 | 0.00 | 86 | 1013.1 |
| 20260509033100 | 60 | 46 | 0.0 | 0.0 | 0.00 | 0.00 | 0.00 | 86 | 1013.1 |
| 20260509032819 | 60 | 46 | 0.0 | 0.0 | 0.00 | 0.00 | 0.00 | 85 | 1013.0 |
| 20260509032048 | 60 | 46 | 0.0 | 0.0 | 0.00 | 0.00 | 0.00 | 83 | 1013.1 |
| 20260509031802 | 61 | 46 | 0.0 | 0.0 | 0.00 | 0.00 | 0.00 | 82 | 1013.1 |
| 20260509031036 | 62 | 46 | 0.0 | 0.0 | 0.00 | 0.00 | 0.00 | 81 | 1013.1 |
| 20260509030530 | 62 | 46 | 0.0 | 0.0 | 0.00 | 0.00 | 0.00 | 80 | 1013.1 |
| 20260509030024 | 63 | 46 | 0.0 | 0.0 | 0.00 | 0.00 | 0.00 | 78 | 1013.0 |
| 20260509025518 | 64 | 46 | 0.0 | 0.0 | 0.00 | 0.00 | 0.00 | 77 | 1012.9 |
| 20260509025012 | 64 | 46 | 0.0 | 0.0 | 0.00 | 0.00 | 0.00 | 76 | 1012.8 |
| 20260509024506 | 65 | 46 | 0.0 | 0.0 | 0.00 | 0.00 | 0.00 | 75 | 1012.7 |
| 20260509024000 | 66 | 46 | 0.0 | 0.0 | 0.00 | 0.00 | 0.00 | 73 | 1012.7 |
| 20260509023453 | 67 | 169 | 0.0 | 0.0 | 0.00 | 0.00 | 0.00 | 72 | 1012.8 |
| 20260509022948 | 67 | 169 | 0.0 | 0.0 | 0.00 | 0.00 | 0.00 | 71 | 1012.7 |
| 20260509022442 | 68 | 169 | 0.0 | 0.0 | 0.00 | 0.00 | 0.00 | 70 | 1012.7 |
| 20260509021936 | 68 | 169 | 0.0 | 0.0 | 0.00 | 0.00 | 0.00 | 69 | 1012.6 |
| 20260509021432 | 69 | 191 | 0.0 | 0.0 | 0.00 | 0.00 | 0.00 | 68 | 1012.7 |
| 20260509020924 | 69 | 185 | 0.0 | 0.0 | 0.00 | 0.00 | 0.00 | 67 | 1012.7 |
| 20260509020418 | 70 | 170 | 0.0 | 2.0 | 0.00 | 0.00 | 0.00 | 66 | 1012.6 |
| 20260509015912 | 70 | 163 | 0.0 | 2.0 | 0.00 | 0.00 | 0.00 | 66 | 1012.6 |
| 20260509015406 | 71 | 210 | 0.0 | 2.0 | 0.00 | 0.00 | 0.00 | 65 | 1012.5 |
| 20260509015122 | 71 | 210 | 0.0 | 2.0 | 0.00 | 0.00 | 0.00 | 64 | 1012.6 |
| 20260509014354 | 71 | 254 | 0.0 | 2.0 | 0.00 | 0.00 | 0.00 | 64 | 1012.4 |
| 20260509013848 | 72 | 221 | 0.0 | 2.0 | 0.00 | 0.00 | 0.00 | 63 | 1012.4 |
| 20260509013604 | 72 | 256 | 0.0 | 3.0 | 0.00 | 0.00 | 0.00 | 63 | 1012.6 |
| 20260509012837 | 72 | 200 | 0.0 | 3.0 | 0.00 | 0.00 | 0.00 | 64 | 1012.5 |
| 20260509012330 | 71 | 225 | 0.0 | 3.0 | 0.00 | 0.00 | 0.00 | 64 | 1012.5 |
| 20260509011824 | 71 | 190 | 0.0 | 3.0 | 0.00 | 0.00 | 0.00 | 64 | 1012.5 |
| 20260509011318 | 71 | 244 | 0.0 | 3.0 | 0.00 | 0.00 | 0.00 | 64 | 1012.4 |
| 20260509010812 | 71 | 246 | 0.0 | 2.0 | 0.00 | 0.00 | 0.00 | 64 | 1012.5 |
| 20260509010310 | 72 | 143 | 0.0 | 2.0 | 0.00 | 0.00 | 0.00 | 64 | 1012.4 |
| 20260509005801 | 72 | 220 | 0.0 | 2.0 | 0.00 | 0.00 | 0.00 | 63 | 1012.6 |
| 20260509005255 | 72 | 216 | 0.0 | 2.0 | 0.00 | 0.00 | 0.00 | 63 | 1012.4 |
| 20260509005015 | 72 | 225 | 0.0 | 2.0 | 0.00 | 0.00 | 0.00 | 63 | 1012.4 |
| 20260509004243 | 73 | 192 | 0.0 | 2.0 | 0.00 | 0.00 | 0.00 | 62 | 1012.4 |
| 20260509003739 | 72 | 248 | 0.0 | 2.0 | 0.00 | 0.00 | 0.00 | 63 | 1012.4 |
| 20260509003231 | 72 | 260 | 0.0 | 5.0 | 0.00 | 0.00 | 0.00 | 62 | 1012.4 |
| 20260509002724 | 73 | 166 | 0.0 | 5.0 | 0.00 | 0.00 | 0.00 | 62 | 1012.5 |
| 20260509002221 | 73 | 225 | 1.0 | 6.0 | 0.00 | 0.00 | 0.00 | 61 | 1012.4 |
| 20260509001712 | 74 | 174 | 1.0 | 6.0 | 0.00 | 0.00 | 0.00 | 61 | 1012.4 |
| 20260509001211 | 74 | 142 | 1.0 | 6.0 | 0.00 | 0.00 | 0.00 | 60 | 1012.5 |
| 20260509000701 | 74 | 259 | 0.0 | 9.0 | 0.00 | 0.00 | 0.00 | 60 | 1012.6 |
| 20260509000154 | 74 | 167 | 0.0 | 9.0 | 0.00 | 0.00 | 0.00 | 60 | 1012.7 |
| 20260508235650 | 74 | 225 | 1.0 | 10.0 | 0.00 | 0.00 | 0.00 | 60 | 1012.5 |
| 20260508235410 | 74 | 220 | 1.0 | 10.0 | 0.00 | 0.00 | 0.00 | 60 | 1012.5 |
| 20260508234637 | 75 | 219 | 1.0 | 7.0 | 0.00 | 0.00 | 0.00 | 59 | 1012.6 |
| 20260508234353 | 75 | 234 | 1.0 | 10.0 | 0.00 | 0.00 | 0.00 | 60 | 1012.6 |
| 20260508233624 | 74 | 259 | 1.0 | 10.0 | 0.00 | 0.00 | 0.00 | 60 | 1012.5 |
| 20260508233119 | 74 | 193 | 2.0 | 10.0 | 0.00 | 0.00 | 0.00 | 60 | 1012.6 |
| 20260508232612 | 74 | 223 | 2.0 | 10.0 | 0.00 | 0.00 | 0.00 | 60 | 1012.6 |
| 20260508232108 | 74 | 229 | 1.0 | 8.0 | 0.00 | 0.00 | 0.00 | 60 | 1012.7 |
| 20260508231600 | 75 | 157 | 2.0 | 9.0 | 0.00 | 0.00 | 0.00 | 59 | 1012.8 |
| 20260508231056 | 76 | 174 | 1.0 | 9.0 | 0.00 | 0.00 | 0.00 | 58 | 1012.8 |
| 20260508230549 | 76 | 238 | 1.0 | 8.0 | 0.00 | 0.00 | 0.00 | 58 | 1012.8 |
| 20260508230043 | 76 | 165 | 1.0 | 6.0 | 0.00 | 0.00 | 0.00 | 58 | 1012.8 |
| 20260508225537 | 76 | 196 | 1.0 | 6.0 | 0.00 | 0.00 | 0.00 | 58 | 1012.7 |
| 20260508225030 | 76 | 225 | 1.0 | 7.0 | 0.00 | 0.00 | 0.00 | 57 | 1012.7 |
| 20260508224526 | 76 | 251 | 1.0 | 8.0 | 0.00 | 0.00 | 0.00 | 57 | 1012.9 |
| 20260508224020 | 77 | 226 | 2.0 | 7.0 | 0.00 | 0.00 | 0.00 | 57 | 1012.9 |
| 20260508223512 | 77 | 164 | 2.0 | 10.0 | 0.00 | 0.00 | 0.00 | 56 | 1012.9 |
| 20260508223008 | 78 | 154 | 1.0 | 10.0 | 0.00 | 0.00 | 0.00 | 55 | 1013.0 |
| 20260508222504 | 78 | 155 | 1.0 | 11.0 | 0.00 | 0.00 | 0.00 | 56 | 1012.9 |
| 20260508221955 | 77 | 251 | 2.0 | 11.0 | 0.00 | 0.00 | 0.00 | 57 | 1012.9 |
| 20260508221449 | 78 | 173 | 3.0 | 11.0 | 0.00 | 0.00 | 0.00 | 56 | 1012.9 |
| 20260508221159 | 78 | 166 | 3.0 | 11.0 | 0.00 | 0.00 | 0.00 | 55 | 1013.1 |
| 20260508220437 | 78 | 212 | 3.0 | 10.0 | 0.00 | 0.00 | 0.00 | 55 | 1013.1 |
| 20260508215930 | 78 | 247 | 3.0 | 10.0 | 0.00 | 0.00 | 0.00 | 55 | 1013.1 |
| 20260508215424 | 79 | 238 | 2.0 | 10.0 | 0.00 | 0.00 | 0.00 | 55 | 1013.0 |
| 20260508214918 | 79 | 198 | 3.0 | 10.0 | 0.00 | 0.00 | 0.00 | 54 | 1013.1 |
| 20260508214412 | 79 | 250 | 4.0 | 10.0 | 0.00 | 0.00 | 0.00 | 54 | 1013.2 |
| 20260508213906 | 79 | 246 | 3.0 | 10.0 | 0.00 | 0.00 | 0.00 | 55 | 1013.2 |
| 20260508213400 | 79 | 242 | 3.0 | 10.0 | 0.00 | 0.00 | 0.00 | 54 | 1013.2 |
| 20260508213119 | 79 | 180 | 4.0 | 10.0 | 0.00 | 0.00 | 0.00 | 55 | 1013.2 |
| 20260508212349 | 78 | 238 | 4.0 | 9.0 | 0.00 | 0.00 | 0.00 | 56 | 1013.1 |
| 20260508211843 | 78 | 278 | 4.0 | 11.0 | 0.00 | 0.00 | 0.00 | 55 | 1013.1 |
| 20260508211336 | 79 | 261 | 4.0 | 11.0 | 0.00 | 0.00 | 0.00 | 55 | 1013.3 |
| 20260508210831 | 79 | 263 | 4.0 | 11.0 | 0.00 | 0.00 | 0.00 | 55 | 1013.3 |
| 20260508210326 | 79 | 256 | 4.0 | 11.0 | 0.00 | 0.00 | 0.00 | 54 | 1013.4 |
| 20260508210300 | 80 | 224 | 3.0 | 10.0 | 0.00 | 0.00 | 0.00 | 53 | 1013.4 |
| 20260508205312 | 80 | 253 | 3.0 | 10.0 | 0.00 | 0.00 | 0.00 | 52 | 1013.6 |
| 20260508204806 | 80 | 244 | 2.0 | 9.0 | 0.00 | 0.00 | 0.00 | 52 | 1013.6 |
| 20260508204303 | 80 | 227 | 2.0 | 9.0 | 0.00 | 0.00 | 0.00 | 52 | 1013.4 |
| 20260508203756 | 80 | 271 | 2.0 | 9.0 | 0.00 | 0.00 | 0.00 | 53 | 1013.4 |
| 20260508203250 | 80 | 243 | 1.0 | 6.0 | 0.00 | 0.00 | 0.00 | 53 | 1013.7 |
| 20260508202743 | 80 | 244 | 1.0 | 5.0 | 0.00 | 0.00 | 0.00 | 53 | 1013.7 |
| 20260508202719 | 80 | 270 | 0.0 | 4.0 | 0.00 | 0.00 | 0.00 | 52 | 1013.7 |
| 20260508201731 | 80 | 256 | 0.0 | 4.0 | 0.00 | 0.00 | 0.00 | 54 | 1013.7 |
| 20260508201224 | 79 | 219 | 0.0 | 8.0 | 0.00 | 0.00 | 0.00 | 55 | 1013.7 |
| 20260508200718 | 78 | 164 | 0.0 | 8.0 | 0.00 | 0.00 | 0.00 | 56 | 1013.8 |
| 20260508200213 | 78 | 271 | 1.0 | 8.0 | 0.00 | 0.00 | 0.00 | 56 | 1013.9 |
| 20260508195707 | 78 | 196 | 1.0 | 8.0 | 0.00 | 0.00 | 0.00 | 58 | 1013.9 |
| 20260508195200 | 77 | 239 | 1.0 | 7.0 | 0.00 | 0.00 | 0.00 | 57 | 1013.9 |
| 20260508194655 | 77 | 311 | 1.0 | 7.0 | 0.00 | 0.00 | 0.00 | 58 | 1014.0 |
| 20260508194149 | 77 | 270 | 2.0 | 8.0 | 0.00 | 0.00 | 0.00 | 58 | 1014.2 |
| 20260508193645 | 77 | 250 | 1.0 | 8.0 | 0.00 | 0.00 | 0.00 | 59 | 1014.1 |
| 20260508193136 | 76 | 236 | 2.0 | 8.0 | 0.00 | 0.00 | 0.00 | 61 | 1014.2 |
| 20260508192630 | 76 | 248 | 1.0 | 8.0 | 0.00 | 0.00 | 0.00 | 61 | 1014.3 |
| 20260508192125 | 76 | 23 | 0.0 | 3.0 | 0.00 | 0.00 | 0.00 | 63 | 1014.3 |
| 20260508191619 | 75 | 348 | 1.0 | 4.0 | 0.00 | 0.00 | 0.00 | 64 | 1014.5 |
| 20260508191337 | 75 | 298 | 0.0 | 4.0 | 0.00 | 0.00 | 0.00 | 65 | 1014.6 |
| 20260508190610 | 74 | 17 | 0.0 | 3.0 | 0.00 | 0.00 | 0.00 | 65 | 1014.6 |
| 20260508190101 | 74 | 133 | 0.0 | 3.0 | 0.00 | 0.00 | 0.00 | 66 | 1014.6 |
| 20260508185818 | 73 | 0 | 0.0 | 3.0 | 0.00 | 0.00 | 0.00 | 65 | 1014.7 |
| 20260508185050 | 73 | 225 | 0.0 | 3.0 | 0.00 | 0.00 | 0.00 | 68 | 1014.7 |
| 20260508184543 | 72 | 290 | 0.0 | 4.0 | 0.00 | 0.00 | 0.00 | 70 | 1014.6 |
| 20260508184035 | 71 | 10 | 1.0 | 4.0 | 0.00 | 0.00 | 0.00 | 72 | 1014.5 |
| 20260508183531 | 70 | 24 | 0.0 | 4.0 | 0.00 | 0.00 | 0.00 | 73 | 1014.6 |
| 20260508183248 | 69 | 18 | 1.0 | 4.0 | 0.00 | 0.00 | 0.00 | 74 | 1014.8 |
| 20260508182520 | 69 | 355 | 0.0 | 4.0 | 0.00 | 0.00 | 0.00 | 75 | 1014.8 |
| 20260508182234 | 69 | 12 | 0.0 | 3.0 | 0.00 | 0.00 | 0.00 | 76 | 1014.8 |
| 20260508181507 | 68 | 57 | 0.0 | 3.0 | 0.00 | 0.00 | 0.00 | 77 | 1014.9 |
| 20260508181000 | 67 | 304 | 0.0 | 5.0 | 0.00 | 0.00 | 0.00 | 79 | 1015.0 |
| 20260508180715 | 66 | 344 | 0.0 | 5.0 | 0.00 | 0.00 | 0.00 | 80 | 1014.9 |
| 20260508175949 | 66 | 275 | 1.0 | 5.0 | 0.00 | 0.00 | 0.00 | 80 | 1015.0 |
| 20260508175443 | 66 | 346 | 1.0 | 5.0 | 0.00 | 0.00 | 0.00 | 80 | 1015.1 |
| 20260508174936 | 65 | 338 | 0.0 | 4.0 | 0.00 | 0.00 | 0.00 | 81 | 1015.1 |
| 20260508174430 | 65 | 19 | 0.0 | 2.0 | 0.00 | 0.00 | 0.00 | 83 | 1015.1 |
| 20260508173924 | 64 | 65 | 0.0 | 3.0 | 0.00 | 0.00 | 0.00 | 84 | 1015.0 |
| 20260508173418 | 63 | 341 | 0.0 | 3.0 | 0.00 | 0.00 | 0.00 | 86 | 1015.0 |
| 20260508172918 | 63 | 12 | 0.0 | 3.0 | 0.00 | 0.00 | 0.00 | 86 | 1015.1 |
| 20260508172907 | 62 | 97 | 0.0 | 3.0 | 0.00 | 0.00 | 0.00 | 89 | 1015.1 |
| 20260508171918 | 61 | 300 | 0.0 | 2.0 | 0.00 | 0.00 | 0.00 | 90 | 1015.1 |
| 20260508171414 | 61 | 0 | 0.0 | 0.0 | 0.00 | 0.00 | 0.00 | 92 | 1015.1 |
| 20260508170916 | 60 | 278 | 0.0 | 0.0 | 0.00 | 0.00 | 0.00 | 94 | 1015.1 |
| 20260508170414 | 59 | 102 | 0.0 | 0.0 | 0.00 | 0.00 | 0.00 | 96 | 1015.1 |
| 20260508165910 | 59 | 147 | 0.0 | 0.0 | 0.00 | 0.00 | 0.00 | 97 | 1015.1 |
| 20260508165412 | 58 | 151 | 0.0 | 0.0 | 0.00 | 0.00 | 0.00 | 97 | 1015.2 |
| 20260508165134 | 58 | 177 | 0.0 | 2.0 | 0.00 | 0.00 | 0.00 | 97 | 1015.1 |
| 20260508164410 | 58 | 173 | 0.0 | 2.0 | 0.00 | 0.00 | 0.00 | 97 | 1015.2 |
| 20260508163912 | 58 | 101 | 0.0 | 2.0 | 0.00 | 0.00 | 0.00 | 97 | 1015.1 |
| 20260508163410 | 57 | 175 | 0.0 | 2.0 | 0.00 | 0.00 | 0.00 | 97 | 1015.2 |
| 20260508162908 | 57 | 167 | 0.0 | 2.0 | 0.00 | 0.00 | 0.00 | 97 | 1015.1 |
| 20260508162406 | 57 | 154 | 0.0 | 2.0 | 0.00 | 0.00 | 0.00 | 97 | 1015.3 |
| 20260508161908 | 57 | 78 | 0.0 | 0.0 | 0.00 | 0.00 | 0.00 | 97 | 1015.3 |
| 20260508161404 | 57 | 36 | 0.0 | 0.0 | 0.00 | 0.00 | 0.00 | 97 | 1015.3 |
| 20260508161129 | 57 | 83 | 0.0 | 0.0 | 0.00 | 0.00 | 0.00 | 97 | 1015.4 |
| 20260508160402 | 57 | 83 | 0.0 | 0.0 | 0.00 | 0.00 | 0.00 | 97 | 1015.3 |
| 20260508155855 | 56 | 63 | 0.0 | 0.0 | 0.00 | 0.00 | 0.00 | 97 | 1015.3 |
| 20260508155349 | 56 | 46 | 0.0 | 0.0 | 0.00 | 0.00 | 0.00 | 97 | 1015.4 |
| 20260508154843 | 56 | 46 | 0.0 | 0.0 | 0.00 | 0.00 | 0.00 | 97 | 1015.4 |
| 20260508154338 | 56 | 46 | 0.0 | 0.0 | 0.00 | 0.00 | 0.00 | 97 | 1015.4 |
| 20260508153832 | 56 | 46 | 0.0 | 0.0 | 0.00 | 0.00 | 0.00 | 97 | 1015.3 |
| 20260508153325 | 56 | 46 | 0.0 | 0.0 | 0.00 | 0.00 | 0.00 | 97 | 1015.3 |
| 20260508152820 | 56 | 347 | 0.0 | 0.0 | 0.00 | 0.00 | 0.00 | 97 | 1015.3 |
| 20260508152313 | 56 | 347 | 0.0 | 0.0 | 0.00 | 0.00 | 0.00 | 97 | 1015.3 |
| 20260508151807 | 56 | 278 | 0.0 | 0.0 | 0.00 | 0.00 | 0.00 | 97 | 1015.4 |
| 20260508151300 | 56 | 278 | 0.0 | 0.0 | 0.00 | 0.00 | 0.00 | 97 | 1015.3 |
| 20260508150755 | 56 | 278 | 0.0 | 0.0 | 0.00 | 0.00 | 0.00 | 97 | 1015.3 |
| 20260508150249 | 56 | 278 | 0.0 | 0.0 | 0.00 | 0.00 | 0.00 | 97 | 1015.3 |
| 20260508145745 | 56 | 61 | 0.0 | 0.0 | 0.00 | 0.00 | 0.00 | 97 | 1015.3 |
| 20260508145237 | 56 | 61 | 0.0 | 0.0 | 0.00 | 0.00 | 0.00 | 97 | 1015.3 |
| 20260508144956 | 56 | 61 | 0.0 | 0.0 | 0.00 | 0.00 | 0.00 | 97 | 1015.4 |
| 20260508144227 | 56 | 30 | 0.0 | 0.0 | 0.00 | 0.00 | 0.00 | 97 | 1015.3 |
| 20260508143719 | 56 | 355 | 0.0 | 0.0 | 0.00 | 0.00 | 0.00 | 97 | 1015.3 |
| 20260508143441 | 56 | 355 | 0.0 | 0.0 | 0.00 | 0.00 | 0.00 | 97 | 1015.4 |
| 20260508142707 | 56 | 5 | 0.0 | 0.0 | 0.00 | 0.00 | 0.00 | 97 | 1015.4 |
| 20260508142201 | 56 | 20 | 0.0 | 0.0 | 0.00 | 0.00 | 0.00 | 97 | 1015.3 |
| 20260508141655 | 56 | 20 | 0.0 | 0.0 | 0.00 | 0.00 | 0.00 | 97 | 1015.2 |
| 20260508141413 | 56 | 40 | 0.0 | 0.0 | 0.00 | 0.00 | 0.00 | 97 | 1015.3 |
| 20260508140643 | 56 | 0 | 0.0 | 0.0 | 0.00 | 0.00 | 0.00 | 96 | 1015.2 |
| 20260508140359 | 56 | 0 | 0.0 | 0.0 | 0.00 | 0.00 | 0.00 | 96 | 1015.3 |
| 20260508135632 | 56 | 0 | 0.0 | 0.0 | 0.00 | 0.00 | 0.00 | 96 | 1015.2 |
| 20260508135127 | 56 | 0 | 0.0 | 0.0 | 0.00 | 0.00 | 0.00 | 97 | 1015.2 |
| 20260508134845 | 56 | 19 | 0.0 | 0.0 | 0.00 | 0.00 | 0.00 | 96 | 1015.1 |
| 20260508134114 | 56 | 57 | 0.0 | 0.0 | 0.00 | 0.00 | 0.00 | 96 | 1015.0 |
| 20260508133830 | 56 | 57 | 0.0 | 0.0 | 0.00 | 0.00 | 0.00 | 96 | 1015.0 |
| 20260508133101 | 56 | 57 | 0.0 | 0.0 | 0.00 | 0.00 | 0.00 | 96 | 1015.0 |
| 20260508132555 | 56 | 63 | 0.0 | 0.0 | 0.00 | 0.00 | 0.00 | 97 | 1015.0 |
| 20260508132049 | 56 | 114 | 0.0 | 0.0 | 0.00 | 0.00 | 0.00 | 97 | 1014.9 |
| 20260508131543 | 56 | 114 | 0.0 | 0.0 | 0.00 | 0.00 | 0.00 | 96 | 1014.8 |
| 20260508131037 | 56 | 114 | 0.0 | 0.0 | 0.00 | 0.00 | 0.00 | 96 | 1014.9 |
| 20260508130531 | 56 | 114 | 0.0 | 0.0 | 0.00 | 0.00 | 0.00 | 96 | 1014.7 |
| 20260508130025 | 55 | 114 | 0.0 | 0.0 | 0.00 | 0.00 | 0.00 | 96 | 1014.8 |
| 20260508125520 | 56 | 114 | 0.0 | 0.0 | 0.00 | 0.00 | 0.00 | 96 | 1014.8 |
| 20260508125014 | 56 | 114 | 0.0 | 0.0 | 0.00 | 0.00 | 0.00 | 96 | 1014.7 |
| 20260508124507 | 56 | 114 | 0.0 | 0.0 | 0.00 | 0.00 | 0.00 | 96 | 1014.7 |
| 20260508124003 | 56 | 207 | 0.0 | 0.0 | 0.00 | 0.00 | 0.00 | 96 | 1014.7 |
| 20260508123456 | 56 | 207 | 0.0 | 0.0 | 0.00 | 0.00 | 0.00 | 96 | 1014.7 |
| 20260508122951 | 56 | 207 | 0.0 | 0.0 | 0.00 | 0.00 | 0.00 | 96 | 1014.6 |
| 20260508122443 | 56 | 207 | 0.0 | 0.0 | 0.00 | 0.00 | 0.00 | 96 | 1014.6 |
| 20260508121937 | 56 | 207 | 0.0 | 0.0 | 0.00 | 0.00 | 0.00 | 96 | 1014.6 |
| 20260508121431 | 56 | 207 | 0.0 | 0.0 | 0.00 | 0.00 | 0.00 | 96 | 1014.5 |
| 20260508120925 | 56 | 207 | 0.0 | 0.0 | 0.00 | 0.00 | 0.00 | 96 | 1014.6 |
| 20260508120419 | 56 | 207 | 0.0 | 0.0 | 0.00 | 0.00 | 0.00 | 96 | 1014.6 |
| 20260508115913 | 56 | 147 | 0.0 | 0.0 | 0.00 | 0.00 | 0.00 | 96 | 1014.4 |
| 20260508115407 | 56 | 117 | 0.0 | 0.0 | 0.00 | 0.00 | 0.00 | 96 | 1014.5 |
| 20260508114901 | 56 | 117 | 0.0 | 0.0 | 0.00 | 0.00 | 0.00 | 96 | 1014.6 |
| 20260508114355 | 56 | 117 | 0.0 | 0.0 | 0.00 | 0.00 | 0.00 | 96 | 1014.6 |
| 20260508113849 | 56 | 117 | 0.0 | 0.0 | 0.00 | 0.00 | 0.00 | 96 | 1014.6 |
| 20260508113612 | 56 | 118 | 0.0 | 0.0 | 0.00 | 0.00 | 0.00 | 96 | 1014.6 |
| 20260508112837 | 56 | 132 | 0.0 | 0.0 | 0.00 | 0.00 | 0.00 | 96 | 1014.6 |
| 20260508112332 | 56 | 188 | 0.0 | 0.0 | 0.00 | 0.00 | 0.00 | 96 | 1014.5 |
| 20260508111827 | 56 | 206 | 0.0 | 0.0 | 0.00 | 0.00 | 0.00 | 96 | 1014.5 |
| 20260508111319 | 56 | 206 | 0.0 | 0.0 | 0.00 | 0.00 | 0.00 | 96 | 1014.5 |
| 20260508110813 | 56 | 206 | 0.0 | 0.0 | 0.00 | 0.00 | 0.00 | 96 | 1014.5 |
| 20260508110307 | 56 | 206 | 0.0 | 0.0 | 0.00 | 0.00 | 0.00 | 96 | 1014.4 |
| 20260508105802 | 56 | 155 | 0.0 | 0.0 | 0.00 | 0.00 | 0.00 | 96 | 1014.4 |
| 20260508105255 | 56 | 155 | 0.0 | 0.0 | 0.00 | 0.00 | 0.00 | 96 | 1014.5 |
| 20260508104749 | 56 | 108 | 0.0 | 0.0 | 0.00 | 0.00 | 0.00 | 96 | 1014.5 |
| 20260508104244 | 56 | 108 | 0.0 | 0.0 | 0.00 | 0.00 | 0.00 | 96 | 1014.6 |
| 20260508103739 | 56 | 148 | 0.0 | 0.0 | 0.00 | 0.00 | 0.00 | 96 | 1014.6 |
| 20260508103500 | 56 | 184 | 0.0 | 0.0 | 0.00 | 0.00 | 0.00 | 96 | 1014.5 |
| 20260508102727 | 56 | 184 | 0.0 | 0.0 | 0.00 | 0.00 | 0.00 | 96 | 1014.6 |
| 20260508102709 | 56 | 181 | 0.0 | 0.0 | 0.00 | 0.00 | 0.00 | 96 | 1014.5 |
| 20260508101713 | 56 | 162 | 0.0 | 0.0 | 0.00 | 0.00 | 0.00 | 96 | 1014.5 |
| 20260508101432 | 56 | 162 | 0.0 | 0.0 | 0.00 | 0.00 | 0.00 | 96 | 1014.6 |
| 20260508100702 | 56 | 162 | 0.0 | 0.0 | 0.00 | 0.00 | 0.00 | 96 | 1014.6 |
| 20260508100155 | 56 | 162 | 0.0 | 0.0 | 0.00 | 0.00 | 0.00 | 95 | 1014.6 |
| 20260508095650 | 56 | 215 | 0.0 | 0.0 | 0.00 | 0.00 | 0.00 | 95 | 1014.6 |
| 20260508095143 | 56 | 215 | 0.0 | 0.0 | 0.00 | 0.00 | 0.00 | 95 | 1014.7 |
| 20260508094637 | 56 | 215 | 0.0 | 0.0 | 0.00 | 0.00 | 0.00 | 95 | 1014.6 |
| 20260508094133 | 56 | 215 | 0.0 | 0.0 | 0.00 | 0.00 | 0.00 | 95 | 1014.6 |
| 20260508093625 | 56 | 215 | 0.0 | 0.0 | 0.00 | 0.00 | 0.00 | 95 | 1014.8 |
| 20260508093119 | 56 | 215 | 0.0 | 0.0 | 0.00 | 0.00 | 0.00 | 95 | 1014.7 |
| 20260508092614 | 56 | 215 | 0.0 | 0.0 | 0.00 | 0.00 | 0.00 | 96 | 1014.7 |
| 20260508092331 | 56 | 215 | 0.0 | 0.0 | 0.00 | 0.00 | 0.00 | 96 | 1014.6 |
| 20260508091601 | 56 | 215 | 0.0 | 0.0 | 0.00 | 0.00 | 0.00 | 96 | 1014.8 |
| 20260508091320 | 56 | 215 | 0.0 | 0.0 | 0.00 | 0.00 | 0.00 | 96 | 1014.7 |
| 20260508090550 | 56 | 215 | 0.0 | 0.0 | 0.00 | 0.00 | 0.00 | 95 | 1014.8 |
| 20260508090046 | 56 | 215 | 0.0 | 0.0 | 0.00 | 0.00 | 0.00 | 95 | 1014.7 |
| 20260508085537 | 56 | 125 | 0.0 | 0.0 | 0.00 | 0.00 | 0.00 | 95 | 1014.8 |
| 20260508085032 | 56 | 125 | 0.0 | 0.0 | 0.00 | 0.00 | 0.00 | 95 | 1014.8 |
| 20260508084526 | 56 | 125 | 0.0 | 0.0 | 0.00 | 0.00 | 0.00 | 95 | 1014.9 |
| 20260508084019 | 56 | 125 | 0.0 | 0.0 | 0.00 | 0.00 | 0.00 | 95 | 1014.9 |
| 20260508083513 | 56 | 158 | 0.0 | 0.0 | 0.00 | 0.00 | 0.00 | 95 | 1014.9 |
| 20260508083007 | 56 | 158 | 0.0 | 0.0 | 0.00 | 0.00 | 0.00 | 95 | 1014.9 |
| 20260508082502 | 56 | 102 | 0.0 | 0.0 | 0.00 | 0.00 | 0.00 | 95 | 1014.9 |
| 20260508082215 | 56 | 103 | 0.0 | 0.0 | 0.00 | 0.00 | 0.00 | 95 | 1015.0 |
| 20260508081449 | 56 | 102 | 0.0 | 0.0 | 0.00 | 0.00 | 0.00 | 95 | 1015.0 |
| 20260508080944 | 56 | 102 | 0.0 | 0.0 | 0.00 | 0.00 | 0.00 | 95 | 1015.1 |
| 20260508080705 | 56 | 102 | 0.0 | 0.0 | 0.00 | 0.00 | 0.00 | 95 | 1015.2 |
| 20260508080205 | 56 | 102 | 0.0 | 0.0 | 0.00 | 0.00 | 0.00 | 95 | 1015.2 |
| 20260508075425 | 56 | 102 | 0.0 | 0.0 | 0.00 | 0.00 | 0.00 | 95 | 1015.2 |
| 20260508074920 | 56 | 102 | 0.0 | 0.0 | 0.00 | 0.00 | 0.00 | 95 | 1015.2 |
| 20260508074413 | 56 | 102 | 0.0 | 0.0 | 0.00 | 0.00 | 0.00 | 95 | 1015.2 |
| 20260508073907 | 56 | 102 | 0.0 | 2.0 | 0.00 | 0.00 | 0.00 | 94 | 1015.3 |
| 20260508073401 | 56 | 102 | 0.0 | 2.0 | 0.00 | 0.00 | 0.00 | 94 | 1015.3 |
| 20260508073122 | 56 | 102 | 0.0 | 2.0 | 0.00 | 0.00 | 0.00 | 94 | 1015.4 |
| 20260508072615 | 56 | 106 | 0.0 | 2.0 | 0.00 | 0.00 | 0.00 | 94 | 1015.4 |
| 20260508071850 | 56 | 130 | 0.0 | 1.0 | 0.00 | 0.00 | 0.00 | 94 | 1015.5 |
| 20260508071349 | 56 | 166 | 0.0 | 1.0 | 0.00 | 0.00 | 0.00 | 94 | 1015.4 |
| 20260508070848 | 56 | 166 | 0.0 | 1.0 | 0.00 | 0.00 | 0.00 | 94 | 1015.3 |
| 20260508070346 | 56 | 166 | 0.0 | 1.0 | 0.00 | 0.00 | 0.00 | 94 | 1015.4 |
| 20260508065848 | 56 | 220 | 0.0 | 0.0 | 0.00 | 0.00 | 0.00 | 95 | 1015.6 |
| 20260508065346 | 56 | 101 | 0.0 | 0.0 | 0.00 | 0.00 | 0.00 | 94 | 1015.5 |
| 20260508064845 | 56 | 130 | 0.0 | 0.0 | 0.00 | 0.00 | 0.00 | 94 | 1015.5 |
| 20260508064345 | 56 | 174 | 0.0 | 0.0 | 0.00 | 0.00 | 0.00 | 94 | 1015.5 |
| 20260508063846 | 56 | 163 | 0.0 | 0.0 | 0.00 | 0.00 | 0.00 | 94 | 1015.5 |
| 20260508063346 | 56 | 139 | 0.0 | 0.0 | 0.00 | 0.00 | 0.00 | 94 | 1015.5 |
| 20260508062846 | 56 | 129 | 0.0 | 0.0 | 0.00 | 0.00 | 0.00 | 94 | 1015.4 |
| 20260508062342 | 56 | 129 | 0.0 | 0.0 | 0.00 | 0.00 | 0.00 | 94 | 1015.4 |
| 20260508062103 | 56 | 129 | 0.0 | 0.0 | 0.00 | 0.00 | 0.00 | 94 | 1015.4 |